loading
DOY 203 | 2024-07-21T11:21:20Z

STARLINK-11198, 60114

Orbit data source: Space-Track

STARLINK-11198, 60114 is a payload satellite owned by SpaceX/Seattle (US) in LEO that was launched on Mon, 24 Jun 2024 UTC via a Falcon 9 launch vehicle from the Air Force Western Test Range (AFWTR). Payloads include a variety of satellites, spacecraft, and rockets equipped with specific instruments for various scientific and technological missions. These include communications satellites like Starlink; space stations such as the ISS; scientific satellites like the Hubble; Earth observation satellites from companies like Planet Labs, Umbra, and HawkEye 360; GPS; miniature CubeSats for education and research; and military/defense satellites.

Loading next visibility...
Loading greatness...
STARLINK-11198 details
NORAD ID60114
COSPAR ID
2024-118B
Orbit
LEO
Last TLE update19 hours ago
Origin
Flag of USSpaceX/Seattle (US)
ManufacturerSpaceX/Seattle
BusStarlink V2M
MotorUnknown
Mass750 kg wet, ~700 kg dry
Launch date (UTC)
2024-06-24 (1 month ago)
Launch vehicle
Falcon 9
Launch site
Air Force Western Test Range (AFWTR)
Object type
Payload
Rocket body
Debris
Radar Cross SectionLarge (>1 m²)
Predictive object data (real-time)
Latitude-40.21528°
Longitude-38.92784°
Altitude352.997 km
Speed7.697 km/s
Apparent Right ascension10h 51m 03s
Apparent Declination-41° 57' 02"
Sunlit
Object is in daylight
Predictive observer data (real-time)
Local Sidereal Time00:19:44
Azimuth104.155° ESE
Elevation-73.174°
Doppler factor1
Orbital elements
Apogee341.363 km
Perigee338.784 km
Semi-major axis6,718.211 km
Eccentricity0.0001919
Inclination53.154°
RAAN286.6551°
Arg. of periapsis147.3153°
True anomaly212.78669°
Mean anomaly212.7986°
Mean motion3.94151 °/min
BSTAR-0.00010851
Period91.34 mins
Definitive object data (Epoch: 2024-07-20T16:06:50.619Z)
Latitude-0.00011°
Longitude106.01457°
Altitude341.812 km
Speed7.704 km/s
True Right ascension19h 06m 37s
True Declination0° 00' 00"
Sunlit
Object was in full shadow at TLE epoch
TLE from 19 hours ago
0 STARLINK-11198
1 60114U 24118B   24202.67141921 -.00018351  00000-0 -10851-3 0  9997
2 60114  53.1540 286.6551 0001919 147.3153 212.7986 15.76695311  5070
Epoch: 2024-07-20T16:06Z
No data available

STARLINK-11198 Visibility forecast

Observer location: 39.9160978°, -105.1181434

STARLINK-11198 is not visible in the next 10 days
Span
Click to sort rows by Start time (UTC) header in descending order
Start Az.
Max El. time (UTC)
Max El. Az.
Max El.
End time (UTC)
End Az.